This is the latest recevied weather packets stored in our database for station/object IU1OLT-7. If no packets are shown the sender has not sent any weather packets the latest 1 day(s).
| Time | Temp. | Humidity | Pressure | Rain* | Wind** | Luminosity | Snow |
|---|---|---|---|---|---|---|---|
| 1777788472 | 17.78° C | 24% | 1022.3 hPa | - | - | - | - |
| 1777786672 | 18.33° C | 21% | 1022.1 hPa | - | - | - | - |
| 1777785772 | 18.89° C | 21% | 1022.1 hPa | - | - | - | - |
| 1777783972 | 15.56° C | 23% | 1022 hPa | - | - | - | - |
| 1777783072 | 15.56° C | 25% | 1022.1 hPa | - | - | - | - |
| 1777782172 | 15.56° C | 24% | 1022.2 hPa | - | - | - | - |
| 1777781272 | 15° C | 23% | 1022.2 hPa | - | - | - | - |
| 1777780376 | 15° C | 25% | 1022.2 hPa | - | - | - | - |
| 1777779469 | 15° C | 26% | 1022.3 hPa | - | - | - | - |
| 1777778569 | 15.56° C | 24% | 1022.3 hPa | - | - | - | - |
| 1777777669 | 15.56° C | 24% | 1022.3 hPa | - | - | - | - |
| 1777776769 | 15.56° C | 25% | 1022.3 hPa | - | - | - | - |
| 1777775869 | 15.56° C | 24% | 1022.5 hPa | - | - | - | - |
| 1777774969 | 15.56° C | 26% | 1022.5 hPa | - | - | - | - |
| 1777774074 | 15.56° C | 26% | 1022.6 hPa | - | - | - | - |
| 1777773169 | 15° C | 27% | 1022.7 hPa | - | - | - | - |
| 1777772268 | 15° C | 28% | 1022.7 hPa | - | - | - | - |
| 1777771368 | 15° C | 29% | 1022.8 hPa | - | - | - | - |
| 1777770468 | 15° C | 30% | 1022.7 hPa | - | - | - | - |
| 1777767768 | 15.56° C | 30% | 1023.1 hPa | - | - | - | - |
| 1777766868 | 15.56° C | 30% | 1023.2 hPa | - | - | - | - |
| 1777765968 | 15.56° C | 29% | 1023.3 hPa | - | - | - | - |
| 1777765068 | 15° C | 29% | 1023.4 hPa | - | - | - | - |
| 1777764168 | 15° C | 30% | 1023.5 hPa | - | - | - | - |
| 1777763268 | 15° C | 29% | 1023.6 hPa | - | - | - | - |
* Rain since midnight (hover to see other rain measurements)
** Current wind speed in m/s (hover to see current wind gust speed)